Regional Weather Roundup
Issued by NWS Cleveland, OH

Home | Current Version | Previous Version | Graphics & Text | Print | Product List | Glossary On
Versions: 1 2 3 4 5 6 7 8 9 10 11 12 13 14 15 16 17 18 19 20 21 22 23 24 25 26 27 28 29 30 31 32 33 34 35 36 37 38 39 40 41 42 43 44 45 46 47 48 49 50
000
ASUS41 KCLE 252310
RWRCLE
OHIO REGIONAL WEATHER ROUNDUP
NATIONAL WEATHER SERVICE WILMINGTON, OH
700 PM EDT MON MAY 25 2015

NOTE: "FAIR" INDICATES FEW OR NO CLOUDS BELOW 12,000 FEET WITH NO
SIGNIFICANT WEATHER AND/OR OBSTRUCTIONS TO VISIBILITY.

OHZ001>008-015>018-024>027-034-035-043-044-260000-
   NORTHWEST OHIO

CITY           SKY/WX    TMP DP  RH WIND       PRES   REMARKS
DEFIANCE       MOSUNNY   80  61  52 SW14G24   29.98S
FINDLAY        MOSUNNY   80  61  52 SW18G32   30.01S
TOLEDO EXPRESS MOSUNNY   80  60  50 SW20G33   29.97S
TOLEDO EXEC    CLOUDY    81  60  48 SW22G29   29.98S
LIMA           MOSUNNY   76  62  62 S16G26    30.03S
$$

OHZ009>014-019>023-028>033-038-089-260000-
   NORTHEAST OHIO

CITY           SKY/WX    TMP DP  RH WIND       PRES   REMARKS
CLE-HOPKINS    PTSUNNY   79  60  52 SW18G28   30.04F
CLE-LAKEFRONT  PTSUNNY   80  60  50 SW21G33   30.01S
CUY CO. ARPT   PTSUNNY   81  63  54 W17G26    30.04S
LORAIN-ELYRIA  MOSUNNY   79  59  50 SW22G30   30.03S
ASHTABULA      PTSUNNY   79  61  53 SW18G25   30.04F
AKRON-CANTON   PTSUNNY   79  62  56 S16       30.08F
WOOSTER        MOSUNNY   80  60  50 SW14      30.06F
MANSFIELD      PTSUNNY   77  61  57 SW15G26   30.07F
YOUNGSTOWN     PTSUNNY   78  62  57 SW10G22   30.07F
$$

OHZ042-051>053-060>062-070>072-077>081-260000-
  SOUTHWEST OHIO

CITY           SKY/WX    TMP DP  RH WIND       PRES   REMARKS
CINC-COVINGTON CLOUDY    73  64  73 S10       30.11F
CINC-LUNKEN    PTSUNNY   75  64  68 S16       30.10F
HAMILTON       PTSUNNY   76  64  66 SW10G18   30.10S
DAYTON         PTSUNNY   77  64  64 SW16      30.10R
WRIGHT-PAT AFB PTSUNNY   78  64  63 SW15G23   30.08S
DAYTON GENERAL PTSUNNY   75  63  66 SW16G26   30.09S
WILMINGTON     MOSUNNY   76  60  57 S16       30.10S
$$

OHZ036-037-039>041-045>050-054>059-063>069-073>076-082>088-260000-
  CENTRAL AND SOUTHEAST OHIO

CITY           SKY/WX    TMP DP  RH WIND       PRES   REMARKS
COLUMBUS       PTSUNNY   81  59  47 SW18G26   30.08S
OSU AIRPORT    MOSUNNY   79  59  50 SW21G31   30.08S
BOLTON FIELD   PTSUNNY   79  61  53 SW17G30   30.09S
RICKENBACK AFB PTSUNNY   79  59  50 SW17G28   30.08S
NEWARK         MOSUNNY   80  60  50 SW12G22   30.08F
MARION         MOSUNNY   77  59  53 SW21G30   30.07S
LANCASTER      MOSUNNY   81  58  45 SW18G28   30.10F
ZANESVILLE     PTSUNNY   80  61  52 SW9       30.10F
NEW PHILLY     PTSUNNY   82  62  50 VRB6      30.09F
$$



USA.gov is the U.S. government's official web portal to all federal, state and local government web resources and services.